Location: Domont
(49.0278°N, 2.3264°E)
Time: 01:25:06
(UTC+00:00)

Orbus 7S? - Pass Details

Date: 03 June 2022
Orbit: 340 x 6374 km, 56.9° (Epoch: 04 July)

Event Time Altitude Azimuth Distance (km) Brightness Sun altitude
Exits shadow 00:04:31 - 235° (SW) 4,836 7.7 -18.6°
Reaches altitude 10° 00:06:27 10° 235° (SW) 4,372 7.5 -18.6°
Maximum altitude 00:19:56 88° 326° (NW) 3,620 7.3 -18.3°
Drops below altitude 10° 00:55:52 10° 62° (ENE) 9,855 10.2 -17.1°
Sets 01:04:46 0° 64° (ENE) 11,057 10.6 -16.7°
